******** Week 375 almanac for PRN-01 ******** ID: 01 Health: 000 Eccentricity: 0.1771926880E-002 Time of Applicability(s): 61440.0000 Orbital Inclination(rad): 0.9570805741 Rate of Right Ascen(r/s): -0.8343204671E-008 SQRT(A) (m 1/2): 5153.556152 Right Ascen at Week(rad): 0.1257297242E+001 Argument of Perigee(rad): 0.200704309 Mean Anom(rad): -0.1928929908E+001 Af0(s): 0.2479553223E-003 Af1(s/s): -0.1091393642E-010 week: 375 ******** Week 375 almanac for PRN-02 ******** ID: 02 Health: 000 Eccentricity: 0.1684904099E-001 Time of Applicability(s): 61440.0000 Orbital Inclination(rad): 0.9621738697 Rate of Right Ascen(r/s): -0.8183198006E-008 SQRT(A) (m 1/2): 5153.694336 Right Ascen at Week(rad): 0.1095143564E+001 Argument of Perigee(rad): -0.754333554 Mean Anom(rad): -0.4675836345E+000 Af0(s): 0.1192092896E-003 Af1(s/s): 0.7275957614E-011 week: 375 ******** Week 375 almanac for PRN-03 ******** ID: 03 Health: 000 Eccentricity: 0.6937980652E-002 Time of Applicability(s): 61440.0000 Orbital Inclination(rad): 0.9945732217 Rate of Right Ascen(r/s): -0.7748894201E-008 SQRT(A) (m 1/2): 5153.534668 Right Ascen at Week(rad): 0.2248639817E+001 Argument of Perigee(rad): 1.240206240 Mean Anom(rad): 0.2304440989E+001 Af0(s): 0.4205703735E-003 Af1(s/s): -0.1818989404E-010 week: 375 ******** Week 375 almanac for PRN-04 ******** ID: 04 Health: 000 Eccentricity: 0.3754138947E-002 Time of Applicability(s): 61440.0000 Orbital Inclination(rad): 0.9721507369 Rate of Right Ascen(r/s): -0.7417451824E-008 SQRT(A) (m 1/2): 5153.650391 Right Ascen at Week(rad): -0.2966184422E+001 Argument of Perigee(rad): -2.888929240 Mean Anom(rad): -0.1023762150E+001 Af0(s): 0.6008148193E-004 Af1(s/s): 0.0000000000E+000 week: 375 ******** Week 375 almanac for PRN-05 ******** ID: 05 Health: 000 Eccentricity: 0.5615711212E-002 Time of Applicability(s): 61440.0000 Orbital Inclination(rad): 0.9809711265 Rate of Right Ascen(r/s): -0.7908900866E-008 SQRT(A) (m 1/2): 5153.714355 Right Ascen at Week(rad): 0.2187521393E+001 Argument of Perigee(rad): 1.452673440 Mean Anom(rad): -0.4278484388E+000 Af0(s): -0.2336502075E-003 Af1(s/s): 0.0000000000E+000 week: 375 ******** Week 375 almanac for PRN-06 ******** ID: 06 Health: 000 Eccentricity: 0.3694057465E-002 Time of Applicability(s): 61440.0000 Orbital Inclination(rad): 0.9858666823 Rate of Right Ascen(r/s): -0.8034620388E-008 SQRT(A) (m 1/2): 5153.654297 Right Ascen at Week(rad): 0.1210715309E+001 Argument of Perigee(rad): -0.533979986 Mean Anom(rad): -0.2701630785E+001 Af0(s): -0.5912780762E-003 Af1(s/s): 0.7275957614E-011 week: 375 ******** Week 375 almanac for PRN-07 ******** ID: 07 Health: 000 Eccentricity: 0.2090406418E-001 Time of Applicability(s): 61440.0000 Orbital Inclination(rad): 0.9506929822 Rate of Right Ascen(r/s): -0.7931758961E-008 SQRT(A) (m 1/2): 5153.528320 Right Ascen at Week(rad): -0.1958612211E+001 Argument of Perigee(rad): -1.961301172 Mean Anom(rad): 0.2773481831E+001 Af0(s): -0.1955032349E-003 Af1(s/s): -0.3637978807E-011 week: 375 ******** Week 375 almanac for PRN-08 ******** ID: 08 Health: 000 Eccentricity: 0.1162004471E-001 Time of Applicability(s): 61440.0000 Orbital Inclination(rad): 0.9426216068 Rate of Right Ascen(r/s): -0.7806039439E-008 SQRT(A) (m 1/2): 5153.687988 Right Ascen at Week(rad): 0.8633660326E-001 Argument of Perigee(rad): 0.544198410 Mean Anom(rad): -0.7483923749E+000 Af0(s): 0.4215240479E-003 Af1(s/s): -0.7275957614E-011 week: 375 ******** Week 375 almanac for PRN-09 ******** ID: 09 Health: 000 Eccentricity: 0.3523826599E-002 Time of Applicability(s): 61440.0000 Orbital Inclination(rad): 0.9664342617 Rate of Right Ascen(r/s): -0.7508884204E-008 SQRT(A) (m 1/2): 5153.678223 Right Ascen at Week(rad): -0.3031089486E+001 Argument of Perigee(rad): 2.031178566 Mean Anom(rad): -0.1298086301E+000 Af0(s): 0.7371902466E-003 Af1(s/s): -0.7275957614E-011 week: 375 ******** Week 375 almanac for PRN-10 ******** ID: 10 Health: 000 Eccentricity: 0.1102685928E-001 Time of Applicability(s): 61440.0000 Orbital Inclination(rad): 0.9940878606 Rate of Right Ascen(r/s): -0.7737465154E-008 SQRT(A) (m 1/2): 5153.611816 Right Ascen at Week(rad): 0.2246135488E+001 Argument of Perigee(rad): -2.261875644 Mean Anom(rad): 0.1320273970E+001 Af0(s): -0.5769729614E-003 Af1(s/s): 0.3637978807E-011 week: 375 ******** Week 375 almanac for PRN-11 ******** ID: 11 Health: 000 Eccentricity: 0.2368927002E-002 Time of Applicability(s): 61440.0000 Orbital Inclination(rad): 0.9627610967 Rate of Right Ascen(r/s): -0.8263201338E-008 SQRT(A) (m 1/2): 5153.578613 Right Ascen at Week(rad): 0.1227216463E+001 Argument of Perigee(rad): -2.357404897 Mean Anom(rad): -0.1475378303E+001 Af0(s): -0.3070831299E-003 Af1(s/s): 0.1091393642E-010 week: 375 ******** Week 375 almanac for PRN-12 ******** ID: 12 Health: 000 Eccentricity: 0.8737087250E-002 Time of Applicability(s): 61440.0000 Orbital Inclination(rad): 0.9586505076 Rate of Right Ascen(r/s): -0.7726036106E-008 SQRT(A) (m 1/2): 5153.662598 Right Ascen at Week(rad): -0.8397822015E+000 Argument of Perigee(rad): 1.584840715 Mean Anom(rad): 0.2011734535E+001 Af0(s): -0.6065368652E-003 Af1(s/s): 0.0000000000E+000 week: 375 ******** Week 375 almanac for PRN-13 ******** ID: 13 Health: 063 Eccentricity: 0.2295970917E-002 Time of Applicability(s): 61440.0000 Orbital Inclination(rad): 0.9590399949 Rate of Right Ascen(r/s): -0.7760323249E-008 SQRT(A) (m 1/2): 5153.555176 Right Ascen at Week(rad): -0.9483259480E+000 Argument of Perigee(rad): 1.841937543 Mean Anom(rad): 0.1821856476E+001 Af0(s): 0.3633499146E-003 Af1(s/s): 0.2182787284E-010 week: 375 ******** Week 375 almanac for PRN-14 ******** ID: 14 Health: 000 Eccentricity: 0.7256507874E-002 Time of Applicability(s): 61440.0000 Orbital Inclination(rad): 0.9419325138 Rate of Right Ascen(r/s): -0.7897471819E-008 SQRT(A) (m 1/2): 5153.595215 Right Ascen at Week(rad): -0.8960619942E+000 Argument of Perigee(rad): -2.694417405 Mean Anom(rad): 0.1892980978E+001 Af0(s): 0.7486343384E-003 Af1(s/s): 0.0000000000E+000 week: 375 ******** Week 375 almanac for PRN-15 ******** ID: 15 Health: 000 Eccentricity: 0.1687908173E-001 Time of Applicability(s): 61440.0000 Orbital Inclination(rad): 0.9444971380 Rate of Right Ascen(r/s): -0.7714607059E-008 SQRT(A) (m 1/2): 5153.697754 Right Ascen at Week(rad): 0.3105636983E+001 Argument of Perigee(rad): 1.523154164 Mean Anom(rad): -0.1753020586E+001 Af0(s): 0.4205703735E-003 Af1(s/s): 0.3637978807E-011 week: 375 ******** Week 375 almanac for PRN-16 ******** ID: 16 Health: 000 Eccentricity: 0.1499319077E-001 Time of Applicability(s): 61440.0000 Orbital Inclination(rad): 0.9577516907 Rate of Right Ascen(r/s): -0.7703178011E-008 SQRT(A) (m 1/2): 5153.639648 Right Ascen at Week(rad): -0.8229776966E+000 Argument of Perigee(rad): 0.935472492 Mean Anom(rad): 0.3170187014E+000 Af0(s): 0.2813339233E-003 Af1(s/s): 0.7275957614E-011 week: 375 ******** Week 375 almanac for PRN-17 ******** ID: 17 Health: 063 Eccentricity: 0.1257371902E-001 Time of Applicability(s): 61440.0000 Orbital Inclination(rad): 0.9582490361 Rate of Right Ascen(r/s): -0.7657461821E-008 SQRT(A) (m 1/2): 5153.613770 Right Ascen at Week(rad): 0.1925430514E+000 Argument of Perigee(rad): -1.105189340 Mean Anom(rad): -0.7523497907E+000 Af0(s): -0.1554489136E-003 Af1(s/s): -0.7275957614E-011 week: 375 ******** Week 375 almanac for PRN-18 ******** ID: 18 Health: 000 Eccentricity: 0.6113529205E-002 Time of Applicability(s): 61440.0000 Orbital Inclination(rad): 0.9708444564 Rate of Right Ascen(r/s): -0.8183198006E-008 SQRT(A) (m 1/2): 5153.576660 Right Ascen at Week(rad): 0.1204201883E+001 Argument of Perigee(rad): -2.870460051 Mean Anom(rad): -0.2725028486E+001 Af0(s): -0.3280639648E-003 Af1(s/s): 0.1091393642E-010 week: 375 ******** Week 375 almanac for PRN-19 ******** ID: 19 Health: 000 Eccentricity: 0.1166057587E-001 Time of Applicability(s): 61440.0000 Orbital Inclination(rad): 0.9573921640 Rate of Right Ascen(r/s): -0.7691748964E-008 SQRT(A) (m 1/2): 5153.708008 Right Ascen at Week(rad): 0.2363274171E+000 Argument of Perigee(rad): 2.998357198 Mean Anom(rad): 0.9290631790E+000 Af0(s): 0.7019042969E-003 Af1(s/s): 0.0000000000E+000 week: 375 ******** Week 375 almanac for PRN-20 ******** ID: 20 Health: 000 Eccentricity: 0.1980781555E-002 Time of Applicability(s): 61440.0000 Orbital Inclination(rad): 0.9618083508 Rate of Right Ascen(r/s): -0.7543171346E-008 SQRT(A) (m 1/2): 5153.565430 Right Ascen at Week(rad): -0.3026015291E+001 Argument of Perigee(rad): -1.799495410 Mean Anom(rad): 0.1876577945E+001 Af0(s): 0.1955032349E-003 Af1(s/s): 0.1455191523E-010 week: 375 ******** Week 375 almanac for PRN-21 ******** ID: 21 Health: 000 Eccentricity: 0.7958412170E-003 Time of Applicability(s): 61440.0000 Orbital Inclination(rad): 0.9639954719 Rate of Right Ascen(r/s): -0.8034620388E-008 SQRT(A) (m 1/2): 5153.523926 Right Ascen at Week(rad): 0.2251783054E+001 Argument of Perigee(rad): -0.098473253 Mean Anom(rad): 0.1559774585E+001 Af0(s): 0.4091262817E-003 Af1(s/s): -0.3637978807E-011 week: 375 ******** Week 375 almanac for PRN-22 ******** ID: 22 Health: 000 Eccentricity: 0.1189517975E-001 Time of Applicability(s): 61440.0000 Orbital Inclination(rad): 0.9572183927 Rate of Right Ascen(r/s): -0.7714607059E-008 SQRT(A) (m 1/2): 5153.665527 Right Ascen at Week(rad): -0.8195985197E+000 Argument of Perigee(rad): -0.993774248 Mean Anom(rad): -0.1269065751E+000 Af0(s): 0.1621246338E-004 Af1(s/s): 0.7275957614E-011 week: 375 ******** Week 375 almanac for PRN-23 ******** ID: 23 Health: 000 Eccentricity: 0.6288528442E-002 Time of Applicability(s): 61440.0000 Orbital Inclination(rad): 0.9890065493 Rate of Right Ascen(r/s): -0.7817468486E-008 SQRT(A) (m 1/2): 5153.680664 Right Ascen at Week(rad): 0.2213541018E+001 Argument of Perigee(rad): -2.742696604 Mean Anom(rad): 0.2356170147E+001 Af0(s): 0.6589889526E-003 Af1(s/s): 0.3637978807E-011 week: 375 ******** Week 375 almanac for PRN-24 ******** ID: 24 Health: 000 Eccentricity: 0.1820611954E-001 Time of Applicability(s): 61440.0000 Orbital Inclination(rad): 0.9348618211 Rate of Right Ascen(r/s): -0.8068907531E-008 SQRT(A) (m 1/2): 5153.565918 Right Ascen at Week(rad): -0.2069012015E+001 Argument of Perigee(rad): 1.152287344 Mean Anom(rad): -0.2536553330E+001 Af0(s): 0.6198883057E-004 Af1(s/s): 0.1818989404E-010 week: 375 ******** Week 375 almanac for PRN-25 ******** ID: 25 Health: 000 Eccentricity: 0.1284980774E-001 Time of Applicability(s): 61440.0000 Orbital Inclination(rad): 0.9469598962 Rate of Right Ascen(r/s): -0.7920329914E-008 SQRT(A) (m 1/2): 5153.618652 Right Ascen at Week(rad): -0.9347672956E+000 Argument of Perigee(rad): 1.161114849 Mean Anom(rad): 0.1932442409E+001 Af0(s): 0.4148483276E-003 Af1(s/s): -0.3637978807E-011 week: 375 ******** Week 375 almanac for PRN-26 ******** ID: 26 Health: 000 Eccentricity: 0.1110363007E-001 Time of Applicability(s): 61440.0000 Orbital Inclination(rad): 0.9276533099 Rate of Right Ascen(r/s): -0.8114623721E-008 SQRT(A) (m 1/2): 5153.702148 Right Ascen at Week(rad): -0.1011245376E+001 Argument of Perigee(rad): 0.716628936 Mean Anom(rad): 0.1080583854E+001 Af0(s): -0.3747940063E-003 Af1(s/s): -0.3637978807E-011 week: 375 ******** Week 375 almanac for PRN-27 ******** ID: 27 Health: 000 Eccentricity: 0.1431751251E-001 Time of Applicability(s): 61440.0000 Orbital Inclination(rad): 0.9517296177 Rate of Right Ascen(r/s): -0.7737465154E-008 SQRT(A) (m 1/2): 5153.630859 Right Ascen at Week(rad): 0.1192306791E+000 Argument of Perigee(rad): 0.900800257 Mean Anom(rad): -0.6184702692E+000 Af0(s): 0.9536743164E-006 Af1(s/s): 0.0000000000E+000 week: 375 ******** Week 375 almanac for PRN-28 ******** ID: 28 Health: 000 Eccentricity: 0.5016326904E-003 Time of Applicability(s): 61440.0000 Orbital Inclination(rad): 0.9616225954 Rate of Right Ascen(r/s): -0.7794610391E-008 SQRT(A) (m 1/2): 5153.537598 Right Ascen at Week(rad): -0.1983178749E+001 Argument of Perigee(rad): -0.417291835 Mean Anom(rad): -0.2747354348E+001 Af0(s): -0.5006790161E-003 Af1(s/s): 0.1091393642E-010 week: 375 ******** Week 375 almanac for PRN-29 ******** ID: 29 Health: 000 Eccentricity: 0.3651142120E-002 Time of Applicability(s): 61440.0000 Orbital Inclination(rad): 0.9609215182 Rate of Right Ascen(r/s): -0.7646032774E-008 SQRT(A) (m 1/2): 5153.665039 Right Ascen at Week(rad): 0.2095467940E+000 Argument of Perigee(rad): 2.825561902 Mean Anom(rad): -0.8673118387E+000 Af0(s): -0.3013610840E-003 Af1(s/s): 0.7275957614E-011 week: 375 ******** Week 375 almanac for PRN-30 ******** ID: 30 Health: 000 Eccentricity: 0.8243083954E-002 Time of Applicability(s): 61440.0000 Orbital Inclination(rad): 0.9359883383 Rate of Right Ascen(r/s): -0.8091765626E-008 SQRT(A) (m 1/2): 5153.631836 Right Ascen at Week(rad): -0.1969145222E+001 Argument of Perigee(rad): -2.263589014 Mean Anom(rad): 0.2490354143E+001 Af0(s): 0.2593994141E-003 Af1(s/s): 0.1455191523E-010 week: 375 ******** Week 375 almanac for PRN-31 ******** ID: 31 Health: 000 Eccentricity: 0.1082944870E-001 Time of Applicability(s): 61440.0000 Orbital Inclination(rad): 0.9544020999 Rate of Right Ascen(r/s): -0.7874613724E-008 SQRT(A) (m 1/2): 5153.549805 Right Ascen at Week(rad): -0.1933929951E+001 Argument of Perigee(rad): 0.960807144 Mean Anom(rad): 0.1692697990E+001 Af0(s): -0.1420974731E-003 Af1(s/s): 0.3637978807E-011 week: 375 ******** Week 375 almanac for PRN-32 ******** ID: 32 Health: 000 Eccentricity: 0.9370803833E-002 Time of Applicability(s): 61440.0000 Orbital Inclination(rad): 0.9694123416 Rate of Right Ascen(r/s): -0.7497455156E-008 SQRT(A) (m 1/2): 5153.733887 Right Ascen at Week(rad): -0.3013745317E+001 Argument of Perigee(rad): -1.977078404 Mean Anom(rad): -0.1083501264E+000 Af0(s): 0.1096725464E-003 Af1(s/s): 0.2182787284E-010 week: 375